{"data":{"norad_id":63735,"intl_designator":"2025-088M","name":"KUIPER-00020","alt_names":[],"object_type":"PAYLOAD","status":"ACTIVE","operator":null,"country":"US","launch_date":"2025-04-28","launch_site_code":"AFETR","launch_vehicle":null,"mission":null,"orbit_class":"UNKNOWN","rcs_meters":null,"size_class":null,"mass_kg":null,"dimensions":null,"purposes":[],"wikipedia_slug":null,"has_3d_model":false,"image_url":null,"decayed_at":null,"tle_current":{"epoch":"2026-05-25T05:32:53.094048Z","epoch_age_seconds":55380,"freshness":"FRESH","line1":"1 63735U 25088M   26145.23117007  .00001163  00000+0  18145-3 0  9998","line2":"2 63735  51.9014 124.6318 0001174   4.0671 356.0300 14.79949638 58990","mean_motion":14.79949638,"eccentricity":0.0001174,"inclination_deg":51.9014,"raan_deg":124.6318,"arg_perigee_deg":4.0671,"mean_anomaly_deg":356.03,"bstar":0.00018145,"rev_number":5899,"period_min":97.300608279212,"perigee_km":628.66041302332,"apogee_km":630.30580222459,"semimajor_km":7007.620107624,"source":"CELESTRAK","updated_at":"2026-05-25T13:38:03.927364Z"}}}